Weather History for CYYC - May, 2014

Change the Weather History Date:

Friday, May 23, 2014

  Actual Average Record
Temperature  
Mean Temperature 66 °F -  
Max Temperature 78 °F 67 °F 82 °F (2001)
Min Temperature 54 °F 43 °F 26 °F (2002)
Cooling Degree Days 1    
Growing Degree Days 16 (Base 50)    
Moisture  
Dew Point 36 °F    
Average Humidity 33    
Maximum Humidity 51    
Minimum Humidity 16    
Precipitation  
Precipitation 0.00 in 0.09 in - ()
Sea Level Pressure  
Sea Level Pressure 29.85 in    
Wind  
Wind Speed 10 mph ()    
Max Wind Speed 22 mph    
Max Gust Speed 26 mph    
Visibility 16.2 miles    
Events      
Averages and records for this station are not official NWS values.
T = Trace of Precipitation, MM = Missing Value Source: Averaged Metar Reports

Daily Weather History Graph

Daily Weather History Graph

Search for Another Location

Airport or City:

Trip Planner

Search our weather history database for the weather conditions in past years. The results will help you decide how hot, cold, wet, or windy it might be!

Date:

Astronomy

May. 23, 2014 Rise Set
Actual Time 5:35 AM MDT 9:31 PM MDT
Civil Twilight 4:52 AM MDT 10:14 PM MDT
Nautical Twilight 3:52 AM MDT 11:14 PM MDT
Astronomical Twilight 2:02 AM MDT 1:14 AM MDT
Moon 3:09 AM MDT (5/23) 3:54 PM MDT (5/23)
Length of Visible Light 17h 21m
Length of Day
15h 56m
Waning Crescent, 26% of the Moon is Illuminated
May 23
Waning Crescent
May 28
New
Jun 5
First Quarter
Jun 12
Full
Jun 19
Last Quarter

Hourly Weather History & Observations

Time (MDT) Temp. Dew Point Humidity Pressure Visibility Wind Dir Wind Speed Gust Speed Precip Events Conditions
12:00 AM 63 °F 33 °F 21% 29.93 in 15 mi West 11.5 mph - -   Clear
12:00 AM 62.6 °F 32.0 °F 32% 29.93 in 15.0 mi West 11.5 mph 18.4 mph N/A   Scattered Clouds
1:00 AM 60.8 °F 33.8 °F 36% 29.93 in 15.0 mi WSW 12.7 mph 19.6 mph N/A   Partly Cloudy
2:00 AM 60.8 °F 33.8 °F 36% 29.91 in 15.0 mi WSW 16.1 mph - N/A   Mostly Cloudy
3:00 AM 55.4 °F 33.8 °F 44% 29.92 in 15.0 mi WSW 6.9 mph - N/A   Mostly Cloudy
4:00 AM 57.2 °F 35.6 °F 44% 29.91 in 15.0 mi WSW 11.5 mph - N/A   Scattered Clouds
5:00 AM 57.2 °F 35.6 °F 44% 29.91 in 15.0 mi WSW 6.9 mph - N/A   Mostly Cloudy
6:00 AM 55 °F 37 °F 39% 29.92 in 19 mi SSW 8.1 mph - -   Mostly Cloudy
6:00 AM 55.4 °F 37.4 °F 51% 29.92 in 20.0 mi South 9.2 mph - N/A   Mostly Cloudy
7:00 AM 59.0 °F 39.2 °F 48% 29.91 in 30.0 mi Variable 4.6 mph - N/A   Mostly Cloudy
8:00 AM 62.6 °F 37.4 °F 39% 29.91 in 40.0 mi Variable 3.5 mph - N/A   Overcast
9:00 AM 66.2 °F 37.4 °F 35% 29.91 in 40.0 mi Variable 6.9 mph - N/A   Overcast
10:00 AM 68.0 °F 35.6 °F 30% 29.88 in 40.0 mi SW 9.2 mph - N/A   Overcast
11:00 AM 73.4 °F 35.6 °F 25% 29.86 in 40.0 mi SW 8.1 mph 25.3 mph N/A   Mostly Cloudy
12:00 PM 71 °F 34 °F 16% 29.86 in 37 mi SW 10.4 mph - -   Overcast
12:00 PM 71.6 °F 33.8 °F 25% 29.86 in 40.0 mi SW 10.4 mph - N/A   Overcast
1:00 PM 73.4 °F 37.4 °F 27% 29.83 in 40.0 mi SW 4.6 mph 19.6 mph N/A   Overcast
2:00 PM 75.2 °F 33.8 °F 22% 29.81 in 40.0 mi SSW 10.4 mph 18.4 mph N/A   Mostly Cloudy
3:00 PM 75.2 °F 35.6 °F 24% 29.81 in 40.0 mi South 11.5 mph 19.6 mph N/A   Mostly Cloudy
4:00 PM 78.8 °F 35.6 °F 21% 29.77 in 40.0 mi SW 13.8 mph 21.9 mph N/A   Mostly Cloudy
5:00 PM 77.0 °F 37.4 °F 24% 29.77 in 40.0 mi SSW 21.9 mph - N/A   Mostly Cloudy
6:00 PM 72 °F 37 °F 18% 29.77 in 37 mi SW 13.8 mph - -   Scattered Clouds
6:00 PM 71.6 °F 37.4 °F 29% 29.77 in 40.0 mi WSW 10.4 mph 18.4 mph N/A   Mostly Cloudy
7:00 PM 71.6 °F 37.4 °F 29% 29.76 in 40.0 mi West 10.4 mph 17.3 mph N/A   Mostly Cloudy
8:00 PM 69.8 °F 37.4 °F 31% 29.74 in 30.0 mi SW 16.1 mph - N/A   Mostly Cloudy
9:00 PM 64.4 °F 41.0 °F 42% 29.77 in 20.0 mi WSW 15.0 mph - N/A   Mostly Cloudy
10:00 PM 62.6 °F 37.4 °F 39% 29.77 in 15.0 mi West 19.6 mph 26.5 mph N/A   Mostly Cloudy
11:00 PM 60.8 °F 39.2 °F 45% 29.78 in 15.0 mi WSW 16.1 mph - N/A   Scattered Clouds